Preview of NWS' New Version of Forecast
This preview is not operational and should not be used for support decisions.

Regional Weather Roundup (RWR)

Issued by National Weather Service (NWS)

                            
000
ASUS44 KJAN 151010
RWRMS 

MISSISSIPPI HOURLY WEATHER ROUNDUP
NATIONAL WEATHER SERVICE JACKSON MS
500 AM CDT SUN SEP 15 2019

NOTE: "FAIR: INDICATES FEW OR NO CLOUDS BELOW 12,000 FEET WITH NO
SIGNIFICANT WEATHER AND/OR OBSTRUCTIONS TO VISIBILITY.

MSZ001>002-007>008-010>013-018>021-025>028-034>036-151100-
NORTHWEST MISSISSIPPI
  
CITY           SKY/WX    TMP DP  RH WIND       PRES   REMARKS
BATESVILLE       N/A     70  70 100 CALM      30.11R                  
CLARKSDALE       N/A     72  72 100 CALM      30.10S                  
CLEVELAND      FAIR      72  72 100 CALM      30.09S                  
GREENWOOD      FAIR      75  70  84 CALM      30.09S                  
GREENVILLE     FAIR      73  70  90 CALM      30.08S                  
OLIVE BRANCH   CLEAR     73  70  88 CALM      30.12S                  
OXFORD         FAIR      70  68  94 CALM      30.13S                  
TUNICA           N/A     70  68  94 CALM      30.11S                  
WINONA         FAIR      71  71 100 CALM      30.11S                  
$$

MSZ003>006-009-014>017-022>024-029>033-037>039-151100-
NORTHEAST MISSISSIPPI
  
CITY           SKY/WX    TMP DP  RH WIND       PRES   REMARKS
ABERDEEN       FAIR      68  52  56 CALM      30.12S HAZE             
COLUMBUS AFB   FAIR      72  69  93 CALM      30.11R                  
CORINTH        FOG       70  70 100 CALM      30.13S VSB<1/4          
GOLDN TRIANGLE FAIR      73  70  90 NE3       30.12R                  
STARKVILLE       N/A     72  68  88 CALM      30.12S                  
TUPELO         FAIR      73  70  90 N7        30.12R                  
$$

MSZ040-058-151100-
CENTRAL MISSISSIPPI
  
CITY           SKY/WX    TMP DP  RH WIND       PRES   REMARKS
JACKSON INTL   FAIR      74  68  81 E3        30.09R                  
JACKSON HAWKNS FAIR      77  69  76 E5        30.10R                  
MADISON        FAIR      73  72  94 CALM      30.11R                  
MERIDIAN KEY   FAIR      73  69  87 N3        30.10R                  
MERIDIAN NAS   FAIR      70  68  93 CALM      30.11R                  
RAYMOND        FAIR      70  70 100 CALM      30.08S                  
VICKSBURG VKS  SUNNY     73  73 100 CALM      30.08R                  
$$

MSZ059>079-151100-
SOUTH MISSISSIPPI
  
CITY           SKY/WX    TMP DP  RH WIND       PRES   REMARKS
BROOKHAVEN     FAIR      72  70  94 CALM      30.10R                  
HATTIESBURG    FAIR      72  69  90 W3        30.06F                  
LAUREL         SUNNY     72  69  92 CALM      30.08S                  
MCCOMB         FAIR      76  68  76 NE5       30.06F                  
NATCHEZ        FAIR      70  68  93 CALM      30.08R                  
PINE BELT      FAIR      72  69  90 N3        30.08S FOG              
$$

MSZ080>082-151100-
COASTAL MISSISSIPPI
  
CITY           SKY/WX    TMP DP  RH WIND       PRES   REMARKS
BILOXI         FAIR      75  71  86 NE7       30.01S                  
PASCAGOULA     FAIR      75  69  81 NE5       30.02S                  
GULFPORT       FAIR      76  69  79 N5        30.01S                  
$$

LAZ007>009-015>016-023>026-151100-
NORTHEAST LOUISIANA
  
CITY           SKY/WX    TMP DP  RH WIND       PRES   REMARKS
BASTROP        FAIR      72  71  98 CALM      30.10R                  
TALLULAH/VBURG FAIR      74  70  87 CALM      30.08S                  
VIDALIA        FAIR      72  69  92 CALM      30.06R                  
$$